SCP
-0 0 0 0 0 0 0 0 0 0 -0 -0 -0 0 0 -0 -0 -0 -0 0 0 0 0 0 0 0 0 0 0 0 0 0 0 0 0 0 0 0 0 0 0 0 0
0 0 0 0 0 0 0 0 0 0 0 0 0 0 0 0 0 -0 -0 0 0 -0 -0 -0 0 0 0 0 0 0 0 0 0 0 0 0 0 0 0 0 0 0 0
1 0 0 1 1 1 1 1 1 1 1 0 0 0 0 0 0 0 0 -0 -0 -0 -0 0 0 0 0 0 0 0 0 0 0 0 0 0 0 0 0 0 0 0 -0
0 0 1 1 1 1 1 1 1 1 1 1 1 1 0 0 0 0 0 0 0 -0 -0 -0 0 0 0 0 0 0 0 0 0 0 0 0 0 0 0 0 0 0 -0
0 1 1 1 1 1 1 1 1 1 1 1 1 1 1 1 1 0 0 0 0 0 -0 -0 0 0 0 0 0 0 0 0 0 0 0 0 -0 0 0 0 0 0 -0
0 0 1 1 1 1 1 1 1 1 1 1 1 1 1 1 1 1 0 0 0 0 0 0 0 0 0 0 0 0 0 0 0 0 -0 -0 -0 0 0 0 0 -0 -0
0 0 0 0 1 1 1 1 1 1 1 1 1 1 1 1 1 1 1 1 1 0 0 0 0 0 0 0 0 0 0 0 0 0 0 -0 -0 0 -0 0 0 -0 0
0 0 0 0 1 1 1 1 1 1 1 1 1 1 1 1 1 1 1 1 1 1 1 1 1 0 0 0 0 0 0 0 0 0 0 0 0 0 0 0 0 0 0
0 0 0 1 1 1 1 1 1 1 1 1 1 1 1 1 1 1 1 1 1 1 1 1 1 1 0 0 0 0 0 0 0 0 0 0 0 0 0 0 0 0 0
1 0 0 1 1 1 1 1 1 1 1 1 1 1 1 1 1 1 1 1 1 1 1 1 1 1 0 0 0 0 0 0 0 0 0 0 0 0 0 0 0 0 0
1 0 0 1 1 1 1 1 1 1 1 1 1 1 1 1 1 1 1 1 1 1 1 1 1 1 0 0 0 0 0 0 0 0 0 0 0 0 -0 0 0 0 0
1 1 1 1 1 1 1 1 1 1 1 1 1 1 2 2 1 1 1 1 1 1 1 1 1 1 1 0 0 0 0 0 0 0 0 0 0 0 0 0 0 0 0
0 2 1 1 1 1 1 1 2 2 2 2 2 2 2 2 2 2 2 1 1 1 1 1 1 1 1 0 0 0 0 0 0 0 0 0 0 0 0 0 0 0 0
0 1 1 1 1 1 1 1 1 2 1 2 2 2 2 2 2 2 2 2 1 2 1 2 1 1 1 0 0 0 0 0 0 0 0 0 0 0 0 0 0 0 0
0 0 1 1 1 1 1 1 1 1 1 1 1 2 2 2 2 2 2 2 1 1 2 2 1 1 1 1 0 0 0 0 0 0 0 0 0 0 0 0 0 0 0
0 0 0 0 2 2 2 2 1 1 1 1 1 1 1 2 2 2 1 1 1 1 2 2 1 1 1 1 0 0 0 0 0 0 0 0 0 0 0 0 0 0 0
0 0 0 0 0 0 0 0 0 0 0 0 0 0 1 2 2 1 1 1 1 1 1 1 1 2 1 1 1 0 0 0 0 0 0 0 0 0 0 0 0 0 0
0 0 0 0 0 0 0 0 0 0 0 0 0 0 0 0 0 -0 -0 0 0 1 1 1 1 1 2 1 1 1 1 0 0 0 0 0 0 0 0 0 0 0 0
0 0 0 0 0 0 0 0 0 0 0 0 0 0 0 0 0 0 0 0 0 0 1 1 1 1 1 1 1 1 1 1 0 0 0 0 0 0 0 0 0 0 0
0 0 0 0 0 0 0 0 0 0 0 0 0 0 0 0 0 0 0 0 0 0 0 0 1 1 1 1 1 1 1 0 0 0 0 0 0 0 0 0 0 0 0
0 0 0 0 0 0 0 0 0 0 0 0 0 0 0 0 0 0 0 0 0 0 0 0 0 0 1 0 0 0 0 0 0 0 0 0 0 0 0 0 0 0 0
0 0 0 0 0 0 0 0 0 0 0 0 0 0 0 0 0 0 0 0 0 0 0 0 0 0 0 0 1 0 0 0 0 0 0 0 0 0 0 0 0 0 0
0 0 0 0 0 0 0 0 0 0 0 0 0 0 0 0 0 0 0 0 0 0 0 0 0 0 0 0 0 0 0 0 0 0 0 0 -0 -0 0 0 0 0 0
0 0 0 0 0 0 0 0 0 0 0 0 0 0 0 0 0 0 0 0 0 0 0 0 0 0 0 0 0 0 1 0 0 0 0 0 0 -0 -0 0 0 0 0
0 0 0 0 0 0 0 0 0 0 0 0 0 0 0 0 0 0 0 0 0 0 0 0 0 0 0 0 0 0 0 0 0 0 0 0 0 -0 -0 0 0 0 0
0 0 0 0 0 0 0 0 0 0 0 0 0 0 0 0 0 0 0 0 0 0 0 0 0 0 0 0 0 0 0 0 0 0 0 0 0 0 -0 0 0 0 0
Wind_Speed_500mb
27 39 46 47 47 46 44 39 35 33 30 27 24 23 27 25 21 21 23 23 22 24 26 26 25 23 21 16 15 12 10 8 6 7 7 11 18 21 23 23 26 26 29
10 43 47 48 48 45 42 41 36 32 29 27 26 25 23 23 19 15 19 20 21 23 25 24 25 21 19 17 13 10 7 3 2 5 8 13 18 23 24 24 23 24 25
10 31 44 45 45 43 41 41 39 34 30 28 28 26 24 23 19 14 15 20 20 21 24 26 25 23 20 18 12 10 9 6 5 6 9 14 19 22 22 22 23 24 24
9 15 38 44 45 43 41 40 39 36 32 31 31 29 27 24 22 17 16 19 20 22 24 26 25 23 21 18 14 11 11 10 9 7 8 14 22 22 21 21 22 23 26
8 14 31 40 43 42 40 39 38 36 34 33 33 32 30 28 25 20 19 20 22 23 24 24 22 20 18 16 14 13 14 13 11 8 10 15 18 21 14 20 20 19 21
5 13 22 32 38 41 41 40 38 36 34 34 35 35 33 32 30 25 22 22 22 23 23 23 22 20 19 17 16 16 17 17 14 11 12 17 20 20 15 18 17 18 20
4 9 20 24 31 37 39 40 39 38 37 36 37 36 36 35 33 30 27 24 24 24 25 24 22 21 20 19 18 20 21 20 18 16 18 15 17 21 24 19 15 20 21
5 4 14 20 22 26 35 39 40 40 39 39 40 40 40 39 37 35 32 30 28 27 26 27 26 24 22 22 21 22 24 23 21 19 24 20 19 19 22 17 18 23 23
8 5 9 16 20 24 31 41 43 42 42 41 41 42 42 42 40 38 36 35 34 31 30 29 28 27 25 24 23 23 24 24 22 21 24 25 21 25 24 22 22 24 25
17 14 11 14 15 19 24 35 44 42 41 41 43 44 44 45 45 44 41 39 38 36 33 31 29 28 27 26 25 24 25 26 26 23 25 25 25 30 19 25 24 27 29
22 19 19 17 17 19 20 26 38 43 43 43 45 48 50 51 51 50 48 45 42 39 36 34 33 31 29 28 28 27 29 29 29 28 26 26 28 24 32 26 27 27 29
26 23 21 22 21 21 22 24 31 41 47 49 49 51 53 53 53 52 50 47 45 44 43 41 38 35 34 32 32 33 34 33 34 33 31 30 30 24 30 23 23 23 27
37 28 27 28 27 28 27 27 29 34 44 51 51 51 52 53 53 55 55 53 52 49 51 49 47 44 40 37 36 35 36 38 39 39 36 34 37 34 36 31 28 25 28
46 39 36 33 33 36 37 35 31 34 35 48 51 51 52 53 51 54 58 57 57 55 55 54 52 49 45 42 40 40 41 41 44 44 42 40 40 43 41 35 32 30 29
46 45 41 40 41 42 42 42 40 39 38 38 43 45 47 51 49 52 58 60 59 56 55 54 53 53 52 48 46 46 48 47 46 48 49 46 45 44 45 41 40 32 32
43 45 45 44 43 43 42 45 44 41 36 28 38 45 47 48 46 52 57 58 56 53 53 52 56 57 59 55 55 55 53 53 51 52 51 49 48 47 45 47 40 39 34
34 38 38 37 32 37 36 38 39 39 37 32 36 44 52 53 55 59 59 58 52 46 49 50 54 56 60 62 62 62 61 60 58 57 57 55 50 51 48 47 42 37 36
26 24 21 20 22 29 30 31 33 33 31 35 41 49 53 71 64 79 75 57 53 52 51 45 50 53 59 61 67 65 64 63 65 61 60 60 54 52 49 46 45 44 43
22 21 22 21 21 19 15 13 20 21 20 19 23 28 34 40 54 70 83 92 104 71 60 51 44 47 59 61 74 70 70 68 63 62 60 60 56 53 53 51 49 47 47
18 16 14 14 16 15 14 12 11 13 19 22 27 29 31 35 38 46 59 73 79 78 75 72 73 56 54 58 74 71 72 71 64 62 60 58 60 56 53 52 51 53 52
17 14 14 9 6 4 14 17 14 14 15 18 23 28 28 30 39 43 42 44 48 57 69 87 96 103 121 70 70 66 74 66 60 55 62 65 67 64 60 58 55 56 57
26 22 17 22 25 21 13 11 13 17 15 20 21 25 28 32 33 37 41 42 48 52 51 60 75 86 109 83 66 59 64 66 62 52 63 67 65 66 66 66 64 61 59
38 41 40 32 22 22 25 18 15 18 19 24 27 29 29 33 36 40 39 40 43 52 53 54 61 62 93 90 53 54 30 41 38 46 69 66 66 70 72 71 70 68 64
46 43 42 41 42 38 36 33 34 34 36 35 39 41 41 39 39 43 44 42 44 48 50 51 48 60 87 97 100 108 97 76 23 32 65 81 79 84 74 76 78 74 70
48 50 49 47 48 46 44 46 48 45 44 46 47 47 48 48 44 46 53 51 46 47 49 53 55 62 71 105 68 86 96 98 91 74 62 59 95 81 83 70 81 84 77
51 57 56 49 50 52 53 50 52 55 51 51 50 54 54 52 50 45 48 60 56 51 49 53 56 61 68 73 76 64 76 74 76 80 80 85 84 103 91 82 68 66 86
Wind_Direction_500mb
196 192 183 183 185 185 182 181 185 183 178 170 165 155 145 137 137 142 154 155 158 163 171 174 170 177 169 155 146 136 123 111 95 95 91 122 131 133 136 140 142 144 140
227 195 187 188 190 189 186 184 189 190 186 180 174 167 159 152 146 151 157 163 167 172 174 175 174 182 181 175 160 149 150 146 98 103 115 129 134 139 142 147 147 152 148
148 188 191 194 196 194 192 189 190 194 194 190 185 178 173 168 164 165 165 170 175 177 178 181 183 188 188 187 178 180 196 211 207 165 142 143 147 150 147 149 159 159 161
138 180 197 200 201 199 199 197 195 195 197 197 193 188 183 181 176 177 176 179 178 181 184 187 191 192 194 197 193 204 224 221 203 185 181 159 164 154 154 170 173 170 166
137 193 206 207 206 204 206 206 204 200 200 202 200 194 191 189 187 186 185 183 185 187 190 195 201 199 203 204 201 217 231 225 201 206 197 176 175 166 167 184 171 172 176
120 193 210 218 219 213 213 213 213 211 208 206 204 201 198 197 196 195 199 192 191 194 196 202 206 209 207 204 203 216 227 219 208 206 189 178 190 179 209 183 173 179 180
346 211 206 215 222 223 221 222 221 219 215 210 208 206 205 204 203 204 206 203 199 198 201 204 212 213 210 205 206 213 223 220 216 212 208 207 211 216 229 197 188 191 189
316 237 219 214 219 229 235 232 229 226 223 216 211 210 210 210 210 210 211 210 206 204 205 206 208 212 211 210 210 216 224 224 222 219 209 214 216 222 216 213 217 197 199
300 256 216 227 229 238 243 237 234 231 228 225 218 213 213 213 214 217 218 216 216 211 210 211 211 211 213 214 213 219 227 230 227 224 221 216 225 228 215 219 227 205 205
267 262 226 219 242 251 248 243 236 238 236 231 226 220 217 217 216 217 221 224 223 220 218 217 217 219 219 220 220 225 230 231 234 230 233 235 236 221 217 222 225 218 209
261 257 252 241 240 254 254 245 237 236 235 235 231 225 221 218 218 219 223 224 226 228 227 226 225 225 225 225 225 227 232 234 236 239 235 243 244 253 221 217 222 226 216
270 260 256 251 249 256 260 259 250 245 244 238 233 230 226 224 222 223 226 228 227 230 232 233 231 230 230 230 230 229 233 236 238 239 238 235 239 233 209 221 220 228 231
277 263 253 258 263 259 256 256 258 257 251 247 241 234 231 230 226 225 227 229 230 229 231 232 232 231 232 234 237 237 236 238 242 241 240 236 231 236 237 239 226 238 238
268 268 265 254 262 269 259 254 256 257 258 253 246 242 235 234 233 234 235 234 235 235 236 236 237 239 239 238 239 243 242 239 242 246 244 240 233 232 238 241 232 247 238
260 262 265 267 269 262 248 250 254 258 261 253 248 247 248 248 246 248 247 243 242 243 244 246 247 248 248 247 246 245 245 244 242 245 248 243 240 231 230 232 235 246 240
252 250 258 265 271 267 245 249 255 256 256 249 244 248 249 248 250 255 257 255 252 252 254 257 257 256 255 254 253 251 250 249 246 246 246 246 243 237 232 231 242 246 246
246 243 246 252 259 257 244 244 250 253 252 239 240 248 253 248 248 255 260 261 257 251 254 256 259 261 262 261 260 259 256 253 250 249 248 246 244 240 237 238 243 237 245
186 192 195 203 216 228 238 245 253 259 254 249 248 252 260 256 273 278 280 260 262 252 247 248 258 262 262 264 264 260 261 258 254 252 252 246 242 237 238 242 244 244 244
152 152 156 163 177 191 203 230 243 249 252 255 258 260 258 256 254 257 255 250 264 266 262 258 256 260 263 264 265 262 259 258 256 252 252 245 242 239 241 243 246 247 245
118 125 137 154 168 183 202 213 247 260 262 265 271 275 276 275 269 265 257 257 259 258 259 248 253 261 282 277 276 268 265 262 258 251 253 253 249 245 246 247 248 246 243
69 40 36 26 28 203 217 220 213 242 267 265 262 268 273 266 265 268 266 264 265 261 261 254 256 253 250 267 276 271 264 260 258 252 254 255 254 256 255 253 251 250 246
50 43 29 8 360 359 355 331 308 291 280 282 275 276 274 277 277 270 270 266 266 267 263 265 252 264 234 245 270 270 273 264 251 248 253 255 260 258 256 256 255 250 245
31 22 13 9 4 348 336 325 314 298 287 284 280 281 281 277 273 273 271 265 258 257 257 251 261 249 235 242 255 255 260 249 259 246 249 244 251 259 262 258 255 249 244
27 19 12 5 360 356 345 334 330 329 319 313 306 301 294 289 285 279 276 270 262 257 255 251 251 242 237 244 249 255 259 261 241 281 268 237 246 249 264 256 258 252 246
11 8 5 3 359 355 351 342 333 326 323 316 309 300 294 293 288 282 281 279 269 262 257 251 242 239 233 242 252 237 243 243 253 242 236 253 243 237 257 258 254 254 250
349 356 353 352 353 348 346 340 331 325 321 316 310 304 299 296 293 288 279 279 279 271 262 256 249 241 237 235 234 246 243 231 231 228 227 235 224 231 247 254 256 260 253
Wind_Speed_850mb
27 39 46 47 47 46 44 39 35 33 30 27 24 23 27 25 21 21 23 23 22 24 26 26 25 23 21 16 15 12 10 8 6 7 7 11 18 21 23 23 26 26 29
10 43 47 48 48 45 42 41 36 32 29 27 26 25 23 23 19 15 19 20 21 23 25 24 25 21 19 17 13 10 7 3 2 5 8 13 18 23 24 24 23 24 25
10 31 44 45 45 43 41 41 39 34 30 28 28 26 24 23 19 14 15 20 20 21 24 26 25 23 20 18 12 10 9 6 5 6 9 14 19 22 22 22 23 24 24
9 15 38 44 45 43 41 40 39 36 32 31 31 29 27 24 22 17 16 19 20 22 24 26 25 23 21 18 14 11 11 10 9 7 8 14 22 22 21 21 22 23 26
8 14 31 40 43 42 40 39 38 36 34 33 33 32 30 28 25 20 19 20 22 23 24 24 22 20 18 16 14 13 14 13 11 8 10 15 18 21 14 20 20 19 21
5 13 22 32 38 41 41 40 38 36 34 34 35 35 33 32 30 25 22 22 22 23 23 23 22 20 19 17 16 16 17 17 14 11 12 17 20 20 15 18 17 18 20
4 9 20 24 31 37 39 40 39 38 37 36 37 36 36 35 33 30 27 24 24 24 25 24 22 21 20 19 18 20 21 20 18 16 18 15 17 21 24 19 15 20 21
5 4 14 20 22 26 35 39 40 40 39 39 40 40 40 39 37 35 32 30 28 27 26 27 26 24 22 22 21 22 24 23 21 19 24 20 19 19 22 17 18 23 23
8 5 9 16 20 24 31 41 43 42 42 41 41 42 42 42 40 38 36 35 34 31 30 29 28 27 25 24 23 23 24 24 22 21 24 25 21 25 24 22 22 24 25
17 14 11 14 15 19 24 35 44 42 41 41 43 44 44 45 45 44 41 39 38 36 33 31 29 28 27 26 25 24 25 26 26 23 25 25 25 30 19 25 24 27 29
22 19 19 17 17 19 20 26 38 43 43 43 45 48 50 51 51 50 48 45 42 39 36 34 33 31 29 28 28 27 29 29 29 28 26 26 28 24 32 26 27 27 29
26 23 21 22 21 21 22 24 31 41 47 49 49 51 53 53 53 52 50 47 45 44 43 41 38 35 34 32 32 33 34 33 34 33 31 30 30 24 30 23 23 23 27
37 28 27 28 27 28 27 27 29 34 44 51 51 51 52 53 53 55 55 53 52 49 51 49 47 44 40 37 36 35 36 38 39 39 36 34 37 34 36 31 28 25 28
46 39 36 33 33 36 37 35 31 34 35 48 51 51 52 53 51 54 58 57 57 55 55 54 52 49 45 42 40 40 41 41 44 44 42 40 40 43 41 35 32 30 29
46 45 41 40 41 42 42 42 40 39 38 38 43 45 47 51 49 52 58 60 59 56 55 54 53 53 52 48 46 46 48 47 46 48 49 46 45 44 45 41 40 32 32
43 45 45 44 43 43 42 45 44 41 36 28 38 45 47 48 46 52 57 58 56 53 53 52 56 57 59 55 55 55 53 53 51 52 51 49 48 47 45 47 40 39 34
34 38 38 37 32 37 36 38 39 39 37 32 36 44 52 53 55 59 59 58 52 46 49 50 54 56 60 62 62 62 61 60 58 57 57 55 50 51 48 47 42 37 36
26 24 21 20 22 29 30 31 33 33 31 35 41 49 53 71 64 79 75 57 53 52 51 45 50 53 59 61 67 65 64 63 65 61 60 60 54 52 49 46 45 44 43
22 21 22 21 21 19 15 13 20 21 20 19 23 28 34 40 54 70 83 92 104 71 60 51 44 47 59 61 74 70 70 68 63 62 60 60 56 53 53 51 49 47 47
18 16 14 14 16 15 14 12 11 13 19 22 27 29 31 35 38 46 59 73 79 78 75 72 73 56 54 58 74 71 72 71 64 62 60 58 60 56 53 52 51 53 52
17 14 14 9 6 4 14 17 14 14 15 18 23 28 28 30 39 43 42 44 48 57 69 87 96 103 121 70 70 66 74 66 60 55 62 65 67 64 60 58 55 56 57
26 22 17 22 25 21 13 11 13 17 15 20 21 25 28 32 33 37 41 42 48 52 51 60 75 86 109 83 66 59 64 66 62 52 63 67 65 66 66 66 64 61 59
38 41 40 32 22 22 25 18 15 18 19 24 27 29 29 33 36 40 39 40 43 52 53 54 61 62 93 90 53 54 30 41 38 46 69 66 66 70 72 71 70 68 64
46 43 42 41 42 38 36 33 34 34 36 35 39 41 41 39 39 43 44 42 44 48 50 51 48 60 87 97 100 108 97 76 23 32 65 81 79 84 74 76 78 74 70
48 50 49 47 48 46 44 46 48 45 44 46 47 47 48 48 44 46 53 51 46 47 49 53 55 62 71 105 68 86 96 98 91 74 62 59 95 81 83 70 81 84 77
51 57 56 49 50 52 53 50 52 55 51 51 50 54 54 52 50 45 48 60 56 51 49 53 56 61 68 73 76 64 76 74 76 80 80 85 84 103 91 82 68 66 86
Wind_Direction_850mb
196 192 183 183 185 185 182 181 185 183 178 170 165 155 145 137 137 142 154 155 158 163 171 174 170 177 169 155 146 136 123 111 95 95 91 122 131 133 136 140 142 144 140
227 195 187 188 190 189 186 184 189 190 186 180 174 167 159 152 146 151 157 163 167 172 174 175 174 182 181 175 160 149 150 146 98 103 115 129 134 139 142 147 147 152 148
148 188 191 194 196 194 192 189 190 194 194 190 185 178 173 168 164 165 165 170 175 177 178 181 183 188 188 187 178 180 196 211 207 165 142 143 147 150 147 149 159 159 161
138 180 197 200 201 199 199 197 195 195 197 197 193 188 183 181 176 177 176 179 178 181 184 187 191 192 194 197 193 204 224 221 203 185 181 159 164 154 154 170 173 170 166
137 193 206 207 206 204 206 206 204 200 200 202 200 194 191 189 187 186 185 183 185 187 190 195 201 199 203 204 201 217 231 225 201 206 197 176 175 166 167 184 171 172 176
120 193 210 218 219 213 213 213 213 211 208 206 204 201 198 197 196 195 199 192 191 194 196 202 206 209 207 204 203 216 227 219 208 206 189 178 190 179 209 183 173 179 180
346 211 206 215 222 223 221 222 221 219 215 210 208 206 205 204 203 204 206 203 199 198 201 204 212 213 210 205 206 213 223 220 216 212 208 207 211 216 229 197 188 191 189
316 237 219 214 219 229 235 232 229 226 223 216 211 210 210 210 210 210 211 210 206 204 205 206 208 212 211 210 210 216 224 224 222 219 209 214 216 222 216 213 217 197 199
300 256 216 227 229 238 243 237 234 231 228 225 218 213 213 213 214 217 218 216 216 211 210 211 211 211 213 214 213 219 227 230 227 224 221 216 225 228 215 219 227 205 205
267 262 226 219 242 251 248 243 236 238 236 231 226 220 217 217 216 217 221 224 223 220 218 217 217 219 219 220 220 225 230 231 234 230 233 235 236 221 217 222 225 218 209
261 257 252 241 240 254 254 245 237 236 235 235 231 225 221 218 218 219 223 224 226 228 227 226 225 225 225 225 225 227 232 234 236 239 235 243 244 253 221 217 222 226 216
270 260 256 251 249 256 260 259 250 245 244 238 233 230 226 224 222 223 226 228 227 230 232 233 231 230 230 230 230 229 233 236 238 239 238 235 239 233 209 221 220 228 231
277 263 253 258 263 259 256 256 258 257 251 247 241 234 231 230 226 225 227 229 230 229 231 232 232 231 232 234 237 237 236 238 242 241 240 236 231 236 237 239 226 238 238
268 268 265 254 262 269 259 254 256 257 258 253 246 242 235 234 233 234 235 234 235 235 236 236 237 239 239 238 239 243 242 239 242 246 244 240 233 232 238 241 232 247 238
260 262 265 267 269 262 248 250 254 258 261 253 248 247 248 248 246 248 247 243 242 243 244 246 247 248 248 247 246 245 245 244 242 245 248 243 240 231 230 232 235 246 240
252 250 258 265 271 267 245 249 255 256 256 249 244 248 249 248 250 255 257 255 252 252 254 257 257 256 255 254 253 251 250 249 246 246 246 246 243 237 232 231 242 246 246
246 243 246 252 259 257 244 244 250 253 252 239 240 248 253 248 248 255 260 261 257 251 254 256 259 261 262 261 260 259 256 253 250 249 248 246 244 240 237 238 243 237 245
186 192 195 203 216 228 238 245 253 259 254 249 248 252 260 256 273 278 280 260 262 252 247 248 258 262 262 264 264 260 261 258 254 252 252 246 242 237 238 242 244 244 244
152 152 156 163 177 191 203 230 243 249 252 255 258 260 258 256 254 257 255 250 264 266 262 258 256 260 263 264 265 262 259 258 256 252 252 245 242 239 241 243 246 247 245
118 125 137 154 168 183 202 213 247 260 262 265 271 275 276 275 269 265 257 257 259 258 259 248 253 261 282 277 276 268 265 262 258 251 253 253 249 245 246 247 248 246 243
69 40 36 26 28 203 217 220 213 242 267 265 262 268 273 266 265 268 266 264 265 261 261 254 256 253 250 267 276 271 264 260 258 252 254 255 254 256 255 253 251 250 246
50 43 29 8 360 359 355 331 308 291 280 282 275 276 274 277 277 270 270 266 266 267 263 265 252 264 234 245 270 270 273 264 251 248 253 255 260 258 256 256 255 250 245
31 22 13 9 4 348 336 325 314 298 287 284 280 281 281 277 273 273 271 265 258 257 257 251 261 249 235 242 255 255 260 249 259 246 249 244 251 259 262 258 255 249 244
27 19 12 5 360 356 345 334 330 329 319 313 306 301 294 289 285 279 276 270 262 257 255 251 251 242 237 244 249 255 259 261 241 281 268 237 246 249 264 256 258 252 246
11 8 5 3 359 355 351 342 333 326 323 316 309 300 294 293 288 282 281 279 269 262 257 251 242 239 233 242 252 237 243 243 253 242 236 253 243 237 257 258 254 254 250
349 356 353 352 353 348 346 340 331 325 321 316 310 304 299 296 293 288 279 279 279 271 262 256 249 241 237 235 234 246 243 231 231 228 227 235 224 231 247 254 256 260 253